Lid_Strength_Index
0 0 -0 -0 -0 -0 -0 -0 -0 -0 -1 -1 -1 -1 -1 -0 0 3 8 3 2 -2 0 5 6 6 7 7 8 10 14 15 14 14 13 11 11 11 11 12 11 10 9 10 8
1 0 0 -0 -0 -0 -0 -1 -0 -1 -1 -1 -1 -0 -0 -0 4 6 1 -3 -3 -2 5 7 8 7 9 8 9 12 15 14 12 12 12 11 12 11 11 11 12 12 10 9 9
0 0 0 -0 -0 -0 -0 -1 -1 -1 -1 -1 -0 -0 -0 1 8 8 -1 -3 -2 -0 5 6 7 8 10 8 9 11 13 11 10 10 10 11 12 11 12 12 11 12 10 10 12
0 0 -0 -0 -0 -0 -0 -1 -1 -1 -1 -1 -0 0 0 4 12 6 -1 -2 -2 4 5 7 8 10 12 12 9 11 10 11 9 9 10 11 11 11 11 10 10 11 11 12 12
0 0 0 0 -0 -0 -0 -1 -1 -1 -1 -0 0 0 4 9 8 2 -1 -1 4 5 7 8 9 10 12 11 11 12 11 10 9 10 10 10 11 12 11 10 11 11 11 12 12
0 0 0 0 0 -0 -0 -1 -1 -1 -1 1 0 1 7 11 3 1 3 5 5 6 8 8 8 8 10 11 12 11 11 11 10 10 11 11 13 12 11 11 12 12 13 13 13
-0 -0 0 0 -0 -0 -1 -1 -1 -1 -0 0 1 2 7 8 3 2 4 5 5 6 8 8 8 10 10 12 11 12 13 12 12 12 12 12 14 13 11 12 13 14 14 14 13
0 -0 0 0 -0 -0 -0 -1 -0 -0 1 1 1 4 9 6 4 3 5 6 6 7 7 8 8 9 11 11 12 14 15 16 13 12 12 12 14 11 11 12 14 14 15 15 14
1 1 1 1 1 0 0 -0 1 1 0 0 5 8 9 4 7 7 7 7 8 8 8 7 9 11 12 14 16 16 18 17 14 12 13 14 15 12 12 13 15 15 15 15 15
1 1 1 1 1 1 1 1 2 3 2 3 4 10 9 10 9 8 8 7 9 9 10 11 13 15 15 16 19 18 18 17 16 14 14 15 15 13 12 13 15 15 16 15 15
0 1 1 1 0 0 1 4 7 7 6 9 10 10 10 8 8 9 8 9 9 11 14 13 16 17 15 15 16 16 17 17 16 13 15 15 15 13 13 14 15 15 15 15 15
1 1 0 -0 -0 0 2 6 7 7 9 6 7 8 8 8 10 10 8 11 12 15 14 15 17 14 14 14 15 16 17 17 15 14 14 15 15 13 13 14 14 15 15 15 15
2 1 1 1 1 2 5 6 7 8 10 8 7 7 9 8 9 10 10 12 13 15 15 16 14 13 14 15 16 16 17 17 16 15 15 16 17 15 15 14 14 14 14 15 16
2 2 1 1 3 4 6 6 7 8 14 12 10 10 10 9 12 10 11 12 14 14 15 16 14 14 15 15 15 17 14 14 15 16 18 16 20 17 15 16 15 15 16 16 16
1 1 1 1 4 5 5 6 7 9 20 12 12 9 11 10 12 13 11 12 14 14 15 15 15 15 15 14 13 14 14 15 16 17 19 18 19 18 16 17 16 16 16 16 16
2 1 1 1 3 4 6 6 7 13 19 14 13 13 14 14 14 13 13 13 13 15 15 14 14 14 13 14 13 14 15 15 17 18 21 17 17 19 17 15 16 16 15 15 15
3 2 2 2 4 5 5 6 13 17 12 15 15 14 15 16 15 15 15 16 17 18 18 16 15 14 14 15 15 15 16 20 21 22 21 18 19 17 16 15 14 15 16 15 15
3 3 2 2 4 5 6 9 17 13 13 13 15 15 16 15 16 15 16 17 15 16 17 17 17 15 14 14 15 16 16 19 22 22 20 18 19 16 16 15 14 14 15 15 16
3 3 3 3 5 5 7 15 15 13 11 13 13 16 16 14 15 16 16 16 14 14 15 17 16 15 14 13 13 16 17 14 17 24 22 18 17 16 15 16 15 15 15 15 14
3 4 4 3 4 5 10 13 12 9 10 11 15 13 16 14 15 16 16 14 13 13 13 14 17 14 14 13 14 14 13 17 17 22 23 19 18 16 16 15 15 14 14 14 14
5 8 6 4 4 7 13 12 11 9 10 11 13 14 14 14 14 16 15 14 13 14 12 13 14 16 14 14 14 14 15 14 14 16 20 22 18 15 14 14 14 14 13 14 13
7 10 6 4 10 9 12 10 9 10 9 10 11 12 13 14 15 15 14 13 12 12 13 12 15 19 16 14 13 13 13 13 16 17 17 17 16 13 13 13 13 13 13 12 12
9 10 7 6 12 12 11 11 10 11 11 11 12 11 12 13 14 14 14 12 12 12 13 11 16 21 17 15 14 15 14 14 14 15 18 18 17 13 14 13 12 12 12 12 11
11 14 11 10 10 11 12 12 12 10 11 11 11 11 12 13 13 14 14 12 12 12 9 9 14 15 17 16 15 16 15 15 15 17 15 15 15 15 13 12 12 12 11 11 11
12 13 12 15 13 12 11 11 12 13 11 11 12 12 13 14 15 14 14 13 12 11 12 11 16 15 15 15 14 15 16 16 16 16 17 16 16 14 12 11 11 11 11 11 11
13 14 13 13 12 13 12 13 12 12 12 12 12 12 12 13 13 14 13 13 13 14 13 13 18 16 18 15 14 15 14 14 14 14 15 14 14 11 12 12 13 12 12 12 11
12 12 12 14 13 13 13 12 12 11 12 12 11 12 12 12 10 12 12 12 12 13 14 14 17 17 17 17 17 19 19 16 15 14 14 16 13 16 14 13 13 13 13 13 13